RH
51 54 55 55 55 57 56 60 64 63 60 56 55 57 60 62 62 65 68 72 75 79 80 78 81 77 76
62 60 60 60 60 63 69 77 67 55 56 52 56 60 61 64 67 70 68 67 72 76 79 71 76 74 80
68 68 67 71 75 78 79 63 56 53 53 58 58 65 70 65 66 64 64 67 67 67 70 71 74 75 78
74 82 83 81 85 77 65 59 59 64 65 71 76 69 66 65 66 70 72 71 70 68 69 72 73 75 77
84 78 82 95 72 71 66 67 69 73 78 78 69 69 72 72 71 73 73 72 69 71 71 74 75 78 79
90 94 77 72 65 68 72 76 83 77 74 78 75 76 76 79 76 72 71 73 73 75 75 76 77 82 85
79 77 70 65 66 78 86 93 94 84 80 83 78 78 77 76 74 76 75 76 78 79 77 79 81 82 82
68 65 65 71 84 98 94 84 82 82 79 86 77 78 77 80 79 78 78 80 75 71 72 74 79 81 81
67 72 77 75 71 69 79 87 84 78 78 84 82 87 86 84 79 65 72 72 75 80 81 82 82 83 83
86 77 72 68 71 74 79 94 93 88 72 87 93 94 86 68 64 72 75 82 83 81 81 82 84 86 90
75 74 73 76 80 84 89 99 96 92 84 92 94 93 94 89 80 79 80 79 82 85 87 90 92 93 94
73 78 84 89 90 91 93 96 96 100 98 100 97 97 94 90 86 74 77 82 87 91 90 92 90 93 91
89 93 92 92 96 100 98 98 98 94 94 94 100 99 98 94 91 89 84 84 88 92 89 92 91 96 95
90 96 97 98 98 98 99 96 98 92 86 87 91 97 97 96 96 92 88 92 88 88 87 93 93 95 96
99 98 97 97 96 96 98 98 96 91 89 87 88 91 95 98 96 91 89 89 87 90 94 95 92 90 94
98 99 97 97 97 97 97 97 96 92 92 89 91 94 88 80 83 95 97 95 92 91 91 96 92 83 84
99 99 99 98 95 97 96 96 93 91 91 92 96 96 93 90 69 72 97 97 95 94 91 94 96 91 90
Wind_Speed
26 27 27 28 33 29 32 32 34 32 34 34 32 33 36 37 37 38 38 38 37 37 36 36 36 36 36
24 25 26 27 31 35 31 31 31 35 30 32 35 36 36 37 36 37 36 36 36 36 35 36 37 38 38
25 24 28 29 31 29 30 31 32 28 33 30 38 36 35 38 35 36 37 38 36 36 36 35 35 36 36
22 25 25 27 26 26 29 26 29 31 35 33 32 35 35 34 36 37 35 34 34 33 33 33 34 34 35
22 26 26 16 25 25 24 29 34 33 32 26 30 35 37 35 34 34 33 33 34 35 35 35 35 35 35
24 21 28 25 23 23 28 27 13 26 23 33 33 36 34 33 33 35 37 35 34 35 36 36 36 36 36
29 27 29 28 30 27 29 28 26 31 28 29 33 35 34 34 35 36 36 38 35 32 31 31 32 34 35
29 30 27 32 32 31 29 29 30 31 26 20 32 34 39 35 35 39 35 31 29 30 31 34 35 35 36
28 29 30 32 31 29 26 22 20 27 27 25 30 29 37 39 35 26 28 30 34 32 32 33 34 34 34
26 33 29 27 27 26 28 23 23 22 24 17 26 21 10 24 22 33 33 30 32 33 33 33 33 34 32
27 26 27 27 26 26 25 25 26 28 38 29 26 27 19 25 25 30 34 38 32 35 34 33 31 30 33
23 25 25 26 28 29 33 33 34 37 41 37 28 29 28 23 17 31 34 36 34 34 33 35 34 32 33
22 25 26 31 34 31 32 32 34 37 36 35 34 34 30 27 25 33 33 33 35 31 29 32 34 33 33
25 28 30 29 30 28 28 30 29 32 31 29 29 31 31 30 30 31 34 21 34 34 33 34 36 33 33
25 26 28 28 29 29 28 27 23 26 30 32 30 30 33 34 31 34 31 32 33 33 31 30 34 33 32
27 26 26 27 28 29 26 25 24 26 26 30 30 31 28 24 26 30 28 29 31 30 30 26 29 32 30
26 27 28 26 27 27 26 25 25 25 28 29 26 22 13 14 30 20 22 29 30 28 26 26 26 32 32
Wind_Direction
298 303 303 301 307 306 304 300 298 297 299 298 297 297 298 295 295 293 290 288 287 285 283 282 281 278 277
305 307 306 307 304 301 299 299 297 298 296 298 297 298 296 295 295 292 289 288 287 286 285 281 282 280 279
302 303 301 301 298 299 302 298 297 297 299 297 297 295 296 297 294 293 292 291 288 285 283 282 280 278 279
294 298 297 299 296 302 300 299 302 299 297 297 296 295 296 297 295 294 292 290 288 285 282 281 279 277 277
296 301 297 301 302 300 297 302 297 297 296 294 297 296 293 294 294 295 295 292 289 287 284 282 280 279 278
301 299 300 301 301 300 296 297 296 303 299 298 297 292 292 291 294 296 295 294 291 288 284 280 279 278 275
300 296 296 300 303 297 289 285 286 297 298 292 296 292 295 294 295 295 294 294 292 288 283 281 280 278 276
295 297 299 302 299 297 297 295 292 295 297 287 297 293 296 294 293 293 293 294 293 291 287 285 283 279 278
298 298 300 301 301 305 301 303 296 295 297 290 293 296 296 292 291 291 290 293 294 292 291 288 285 283 281
306 308 309 304 302 299 299 295 293 298 300 299 299 304 301 289 294 295 297 295 294 293 291 288 285 286 281
307 303 302 301 300 300 298 292 293 289 291 299 295 292 278 293 293 295 295 296 294 293 293 290 289 285 282
301 299 300 300 302 301 298 294 288 280 291 290 281 285 286 286 291 298 295 294 292 289 290 291 292 289 285
300 299 302 303 305 303 301 298 295 293 290 288 279 281 278 279 285 290 296 298 293 286 291 289 286 285 289
302 303 305 306 303 302 298 301 296 296 298 296 291 285 279 278 281 284 288 285 290 291 291 289 288 286 281
305 304 303 303 300 301 297 295 291 297 301 306 304 295 280 275 278 280 284 285 287 288 289 289 290 285 278
305 301 298 299 299 301 302 298 292 296 298 300 302 301 298 288 271 273 280 280 285 292 292 284 285 287 286
301 299 297 296 301 301 300 298 296 297 295 297 299 300 301 303 309 298 279 288 293 291 289 284 282 287 291